• en Suisse
  • Liste des pays
  • À 7 jours
  • Température de l'eau
  • Carte satellitaire
  • Carte météo
  • Widgets météo
  • user-avatar
    Se connecter

    Météo par heure à Itkuli

    Ce jour, 25 Septembre, Mardi

    Heure Température Précipitation Vent Pression Humidité
    00:00 +13°C° 0 mm 3 m/s 744 mmHg 90%
    01:00 +13°C° 0 mm 3 m/s 744 mmHg 90%
    02:00 +12°C° 0 mm 3 m/s 744 mmHg 89%
    03:00 +12°C° 0 mm 3 m/s 744 mmHg 89%
    04:00 +12°C° 0 mm 3 m/s 744 mmHg 88%
    05:00 +12°C° 0 mm 3 m/s 744 mmHg 86%
    06:00 +12°C° 0 mm 3 m/s 744 mmHg 84%
    07:00 +12°C° 0 mm 4 m/s 744 mmHg 82%
    08:00 +14°C° 0 mm 4 m/s 744 mmHg 74%
    09:00 +15°C° 0 mm 5 m/s 744 mmHg 65%
    10:00 +17°C° 0 mm 6 m/s 744 mmHg 57%
    11:00 +19°C° 0 mm 6 m/s 744 mmHg 55%
    12:00 +20°C° 0 mm 7 m/s 744 mmHg 53%
    13:00 +21°C° 0 mm 7 m/s 744 mmHg 51%
    14:00 +21°C° 0 mm 6 m/s 744 mmHg 53%
    15:00 +21°C° 0 mm 5 m/s 744 mmHg 56%
    16:00 +20°C° 0 mm 5 m/s 744 mmHg 58%
    17:00 +19°C° 0 mm 4 m/s 744 mmHg 61%
    18:00 +18°C° 0 mm 4 m/s 744 mmHg 65%
    19:00 +15°C° 0 mm 4 m/s 744 mmHg 68%
    20:00 +15°C° 0 mm 4 m/s 744 mmHg 69%
    21:00 +14°C° 0 mm 4 m/s 743 mmHg 70%
    22:00 +14°C° 0 mm 3 m/s 743 mmHg 72%
    23:00 +13°C° 0 mm 4 m/s 743 mmHg 72%

    Demain, 26 Septembre, Mercredi

    Heure Température Précipitation Vent Pression Humidité
    00:00 +13°C° 0 mm 4 m/s 743 mmHg 72%
    01:00 +13°C° 0 mm 4 m/s 744 mmHg 72%
    02:00 +13°C° 0 mm 4 m/s 744 mmHg 71%
    03:00 +13°C° 0 mm 5 m/s 744 mmHg 69%
    04:00 +13°C° 0 mm 5 m/s 744 mmHg 68%
    05:00 +13°C° 0.2 mm 5 m/s 744 mmHg 70%
    06:00 +13°C° 0.2 mm 5 m/s 744 mmHg 72%
    07:00 +13°C° 0.2 mm 6 m/s 744 mmHg 74%
    08:00 +13°C° 0.1 mm 6 m/s 744 mmHg 71%
    09:00 +14°C° 0.1 mm 6 m/s 744 mmHg 69%
    10:00 +15°C° 0.1 mm 7 m/s 744 mmHg 67%
    11:00 +15°C° 0 mm 6 m/s 744 mmHg 65%
    12:00 +15°C° 0 mm 6 m/s 745 mmHg 64%
    13:00 +16°C° 0 mm 6 m/s 745 mmHg 62%
    14:00 +15°C° 0.4 mm 5 m/s 745 mmHg 67%
    15:00 +14°C° 0.4 mm 5 m/s 745 mmHg 72%
    16:00 +13°C° 0.4 mm 4 m/s 745 mmHg 77%
    17:00 +12°C° 0.3 mm 3 m/s 746 mmHg 81%
    18:00 +11°C° 0.3 mm 3 m/s 746 mmHg 86%
    19:00 +10°C° 0.3 mm 2 m/s 746 mmHg 91%
    20:00 +10°C° 0.2 mm 2 m/s 746 mmHg 92%
    21:00 +10°C° 0.2 mm 2 m/s 746 mmHg 92%
    22:00 +10°C° 0.2 mm 2 m/s 746 mmHg 93%
    23:00 +9°C° 0.2 mm 2 m/s 746 mmHg 93%

    Après-demain, 27 Septembre, Jeudi

    Heure Température Précipitation Vent Pression Humidité
    00:00 +9°C° 0.2 mm 2 m/s 746 mmHg 94%
    01:00 +9°C° 0.2 mm 2 m/s 746 mmHg 94%
    02:00 +9°C° 0.5 mm 2 m/s 745 mmHg 95%
    03:00 +9°C° 0.5 mm 2 m/s 745 mmHg 95%
    04:00 +8°C° 0.5 mm 2 m/s 745 mmHg 95%
    05:00 +8°C° 0.1 mm 3 m/s 745 mmHg 94%
    06:00 +8°C° 0.1 mm 3 m/s 745 mmHg 94%
    07:00 +8°C° 0.1 mm 3 m/s 744 mmHg 93%
    08:00 +7°C° 0 mm 4 m/s 744 mmHg 90%
    09:00 +8°C° 0 mm 4 m/s 744 mmHg 86%
    10:00 +8°C° 0 mm 5 m/s 744 mmHg 82%
    11:00 +8°C° 0 mm 5 m/s 744 mmHg 79%
    12:00 +9°C° 0 mm 5 m/s 744 mmHg 76%
    13:00 +9°C° 0 mm 5 m/s 744 mmHg 72%
    14:00 +9°C° 0 mm 5 m/s 743 mmHg 72%
    15:00 +9°C° 0 mm 5 m/s 743 mmHg 73%
    16:00 +10°C° 0 mm 4 m/s 743 mmHg 73%
    17:00 +8°C° 0.1 mm 4 m/s 743 mmHg 76%
    18:00 +7°C° 0.1 mm 4 m/s 742 mmHg 78%
    19:00 +7°C° 0.1 mm 3 m/s 742 mmHg 81%
    20:00 +6°C° 0 mm 4 m/s 742 mmHg 79%
    21:00 +5°C° 0 mm 4 m/s 741 mmHg 77%
    22:00 +5°C° 0 mm 4 m/s 741 mmHg 75%
    23:00 +5°C° 0 mm 5 m/s 740 mmHg 74%

    28 Septembre, Vendredi

    Heure Température Précipitation Vent Pression Humidité
    00:00 +5°C° 0 mm 5 m/s 739 mmHg 72%
    01:00 +5°C° 0 mm 5 m/s 739 mmHg 71%
    02:00 +5°C° 0.2 mm 5 m/s 738 mmHg 74%
    03:00 +5°C° 0.2 mm 5 m/s 737 mmHg 77%
    04:00 +5°C° 0.2 mm 5 m/s 737 mmHg 81%
    05:00 +3°C° 0.7 mm 5 m/s 736 mmHg 84%
    06:00 +3°C° 0.7 mm 5 m/s 736 mmHg 86%
    07:00 +3°C° 0.7 mm 5 m/s 736 mmHg 89%
    08:00 +3°C° 0.2 mm 5 m/s 736 mmHg 88%
    09:00 +5°C° 0.2 mm 5 m/s 736 mmHg 88%
    10:00 +5°C° 0.2 mm 5 m/s 737 mmHg 87%
    11:00 +6°C° 0.1 mm 5 m/s 737 mmHg 82%
    12:00 +7°C° 0.1 mm 5 m/s 738 mmHg 77%
    13:00 +8°C° 0.1 mm 5 m/s 738 mmHg 73%
    14:00 +8°C° 0.2 mm 5 m/s 739 mmHg 72%
    15:00 +8°C° 0.2 mm 5 m/s 739 mmHg 72%
    16:00 +8°C° 0.2 mm 5 m/s 739 mmHg 72%
    17:00 +7°C° 0 mm 5 m/s 740 mmHg 76%
    18:00 +6°C° 0 mm 4 m/s 740 mmHg 80%
    19:00 +5°C° 0 mm 4 m/s 740 mmHg 84%
    20:00 +5°C° 0 mm 4 m/s 740 mmHg 84%
    21:00 +5°C° 0 mm 4 m/s 740 mmHg 84%
    22:00 +5°C° 0 mm 4 m/s 741 mmHg 84%
    23:00 +5°C° 0.1 mm 4 m/s 740 mmHg 84%

    29 Septembre, Samedi

    Heure Température Précipitation Vent Pression Humidité
    00:00 +5°C° 0.1 mm 5 m/s 739 mmHg 83%
    01:00 +5°C° 0.1 mm 5 m/s 739 mmHg 83%
    02:00 +4°C° 0.8 mm 6 m/s 738 mmHg 81%
    03:00 +5°C° 0.8 mm 7 m/s 737 mmHg 80%
    04:00 +5°C° 0.8 mm 8 m/s 736 mmHg 78%
    05:00 +5°C° 1.6 mm 8 m/s 736 mmHg 80%
    06:00 +5°C° 1.6 mm 9 m/s 735 mmHg 82%
    07:00 +6°C° 1.6 mm 9 m/s 734 mmHg 84%
    08:00 +6°C° 1.1 mm 9 m/s 735 mmHg 85%
    09:00 +7°C° 1.1 mm 9 m/s 735 mmHg 86%
    10:00 +7°C° 1.1 mm 9 m/s 736 mmHg 87%
    11:00 +9°C° 0.1 mm 8 m/s 737 mmHg 81%
    12:00 +9°C° 0.1 mm 8 m/s 738 mmHg 75%
    13:00 +9°C° 0.1 mm 8 m/s 739 mmHg 69%
    14:00 +8°C° 0 mm 7 m/s 740 mmHg 67%
    15:00 +8°C° 0 mm 7 m/s 741 mmHg 66%
    16:00 +6°C° 0 mm 7 m/s 742 mmHg 64%
    17:00 +6°C° 0 mm 5 m/s 743 mmHg 67%
    18:00 +4°C° 0 mm 4 m/s 744 mmHg 70%
    19:00 +3°C° 0 mm 3 m/s 744 mmHg 74%
    20:00 +2°C° 0 mm 3 m/s 745 mmHg 76%
    21:00 +3°C° 0 mm 2 m/s 746 mmHg 78%
    22:00 +2°C° 0 mm 2 m/s 746 mmHg 80%
    23:00 +2°C° 0 mm 2 m/s 747 mmHg 82%

    30 Septembre, Dimanche

    Heure Température Précipitation Vent Pression Humidité
    00:00 +2°C° 0 mm 1 m/s 747 mmHg 84%
    01:00 +2°C° 0 mm 1 m/s 747 mmHg 86%
    02:00 +2°C° 0 mm 1 m/s 748 mmHg 85%
    03:00 +3°C° 0 mm 1 m/s 748 mmHg 84%
    04:00 +3°C° 0 mm 1 m/s 748 mmHg 83%
    05:00 +3°C° 0 mm 1 m/s 748 mmHg 83%
    06:00 +2°C° 0 mm 0 m/s 748 mmHg 82%
    07:00 +2°C° 0 mm 0 m/s 749 mmHg 82%
    08:00 +4°C° 0 mm 1 m/s 749 mmHg 76%
    09:00 +5°C° 0 mm 1 m/s 749 mmHg 71%
    10:00 +6°C° 0 mm 1 m/s 749 mmHg 66%
    11:00 +7°C° 0 mm 1 m/s 749 mmHg 62%
    12:00 +8°C° 0 mm 1 m/s 749 mmHg 58%
    13:00 +8°C° 0 mm 1 m/s 749 mmHg 54%
    14:00 +8°C° 0 mm 1 m/s 749 mmHg 54%
    15:00 +8°C° 0 mm 1 m/s 749 mmHg 54%
    16:00 +8°C° 0 mm 1 m/s 749 mmHg 54%
    17:00 +7°C° 0 mm 1 m/s 749 mmHg 59%
    18:00 +6°C° 0 mm 1 m/s 749 mmHg 64%
    19:00 +5°C° 0 mm 1 m/s 749 mmHg 69%
    20:00 +5°C° 0 mm 1 m/s 749 mmHg 71%
    21:00 +4°C° 0 mm 1 m/s 750 mmHg 74%
    22:00 +4°C° 0 mm 1 m/s 750 mmHg 76%
    23:00 +3°C° 0 mm 1 m/s 750 mmHg 78%
    Voir plus